Location: Newark
(42.8481°N, 0.4872°E)
Time: 08:42:55
(UTC+00:00)

Transit 2A Rocket - Pass Details

Date: 31 October 2020
Orbit: 588 x 914 km, 66.7° (Epoch: 29 November)

Event Time Altitude Azimuth Distance (km) Brightness Sun altitude
Rises 08:36:44 0° 203° (SSW) 3,529 8.7 18.9°
Reaches altitude 10° 08:39:15 10° 202° (SSW) 2,595 8.1 19.2°
Maximum altitude 08:45:20 75° 118° (ESE) 936 6.1 20.0°
Drops below altitude 10° 08:51:15 10° 34° (NE) 2,527 7.6 20.8°
Sets 08:53:41 0° 33° (NNE) 3,432 8.2 21.1°
